Location: By?lhalli
(13.1007°N, 77.6429°E)
Time: 10:54:37
(UTC+00:00)

Daily predictions for brighter satellites

Satellite Brightness Start Highest point End
(mag) Time Altitude Azimuth Time Altitude Azimuth Time Altitude Azimuth
Centaur AC-146 3.8 12:36:24 10° W 12:40:05 59° S 13:02:39 10° ESE
SKYMED 2 3.9 12:45:11 10° N 12:49:30 72° WNW 12:53:49 10° SSW
CORIOLIS 4.2 12:46:33 10° SSE 12:51:54 88° ENE 12:57:14 10° NNW
Cosmos 1726 Rocket 3.6 12:47:42 10° S 12:52:08 88° W 12:56:33 10° N
Cosmos 1486 Rocket 4.5 12:47:14 10° N 12:52:11 39° ENE 12:57:07 10° SE
Nadezhda 3 Rocket 4.5 12:46:04 10° S 12:52:13 69° W 12:58:27 10° N
Okean-O 2.6 12:50:36 10° SSE 12:55:01 80° ENE 12:59:26 10° N
Cosmos 1626 2.1 12:54:24 10° N 12:58:07 87° E 13:01:49 10° S
Meteor 1-16 Rocket 4.2 12:52:53 10° S 12:58:40 83° E 13:04:17 10° N
NOSS 3-2 (A) 3.8 12:54:05 10° S 12:58:56 33° ESE 13:03:56 10° NE
Cosmos 2058 Rocket 3.0 12:57:10 10° S 13:01:32 71° E 13:05:52 10° N
USA 234 3.4 12:55:11 10° NE 13:01:36 59° SE 13:08:01 10° SSW
Meteor 2-10 4.0 12:57:29 10° S 13:02:44 65° E 13:07:47 10° NNE
ASTEX 1 3.4 12:58:45 10° N 13:03:42 80° E 13:08:41 10° S
Cosmos 1821 Rocket 4.1 12:58:06 10° N 13:04:02 53° E 13:10:05 10° SSE
Cosmos 2228 4.1 13:01:55 10° SSW 13:06:10 50° W 13:10:26 10° N
Cosmos 1174 3.0 13:04:40 10° NNW 13:07:36 86° WSW 13:10:39 10° SSE
Cosmos 968 Rocket 4.3 13:04:21 10° NNE 13:08:50 28° ENE 13:13:15 10° SE
Ariane H10 4.2 13:10:46 10° WSW 13:13:42 38° S 13:19:26 12° ESE
Cosmos 2278 Rocket 2.1 13:08:30 10° S 13:14:08 76° ESE 13:19:47 10° NNE
Cosmos 1934 Rocket 4.3 13:13:24 10° NNE 13:19:22 43° E 13:25:20 10° SSE
H-II Stage 2 4.3 12:58:08 10° WSW 13:19:33 80° SSE 13:22:35 19° ENE
NOSS 3-2 (C) 4.0 13:15:45 10° S 13:20:27 29° ESE 13:23:49 17° ENE
CZ-4 R/B 4.3 13:16:52 10° SSE 13:20:57 66° ENE 13:25:01 10° N
Cosmos 1503 Rocket 4.4 13:17:57 10° N 13:22:45 39° ENE 13:27:34 10° SE
Meteor 1-21 Rocket 4.2 13:17:50 10° N 13:23:39 86° E 13:29:19 10° S
Cosmos 1242 Rocket 3.9 13:21:48 10° NNE 13:23:48 21° ENE 13:23:48 21° ENE
CZ-4 R/B 1.3 13:21:47 10° SSE 13:25:48 73° ENE 13:29:53 10° N
Cosmos 1908 3.2 13:22:01 10° S 13:25:54 87° E 13:29:49 10° N
YAOGAN 6 2.5 13:26:10 10° SSE 13:29:52 86° ENE 13:33:33 10° N
GPS 2-18 Rocket1 3.2 13:26:24 10° WSW 13:30:24 70° SSE 13:32:12 31° E
SWIFT 4.4 13:28:36 10° S 13:30:52 14° SSE 13:32:04 13° SE
IUS-13 SRM-1 3.5 13:31:29 10° WNW 13:34:54 87° SSW 13:50:42 11° ESE
NOAA 15 4.5 13:31:10 10° SSE 13:36:25 73° ENE 13:41:42 10° N
EO 1 Delta rocket 3.9 13:32:59 10° SSE 13:38:16 62° E 13:42:52 10° N
CSL-04 Rocket 3.6 13:37:19 10° SSE 13:42:52 82° ENE 13:48:24 10° N
Cosmos 44 3.9 13:40:16 10° S 13:45:02 36° ESE 13:45:28 35° E
Cosmos 1328 3.8 13:41:23 10° N 13:45:15 53° E 13:49:04 10° SSE
NOAA 11 4.4 13:40:20 10° SSE 13:45:30 44° ENE 13:50:39 10° N
Cosmos 1953 Rocket 4.3 13:47:05 10° NNW 13:51:18 52° W 13:55:29 10° S
Cosmos 2285 Rocket 4.1 13:51:00 10° NNW 13:57:24 81° WSW 14:03:45 10° S
ATLAS 3B R/B 2.8 13:56:49 10° S 14:03:31 51° ESE 14:04:41 46° E
Cosmos 1812 Rocket 3.7 14:01:09 10° S 14:05:30 73° W 14:08:55 16° N
GPS 2-12 Rocket1 4.1 14:03:22 10° WNW 14:07:24 33° N 14:07:24 33° N
CZ-2C R/B 3.8 14:10:43 42° N 14:12:15 77° WNW 14:16:53 10° SSW
YAOGAN 1 4.3 14:10:14 10° SSW 14:14:05 32° W 14:17:56 10° NW
Hubble Space Telescope 2.2 14:12:45 10° W 14:16:26 31° SSW 14:16:28 31° SSW
ADEOS Rocket 3.2 14:10:38 10° NNE 14:18:01 71° ESE 14:24:42 10° S
CENTAUR R/B 2.1 14:12:48 10° SSW 14:17:29 64° SSE 14:17:29 64° SSE
Atlas Centaur 2 2.1 14:14:04 10° NW 14:18:44 56° NNW 14:18:44 56° NNW
CZ-4C R/B 3.2 14:17:56 10° NNW 14:26:06 75° WSW 14:34:28 10° SSE
Palapa B4 Rocket 4.4 14:19:54 10° WSW 14:31:02 69° SSE 14:31:53 65° SE
Ariane Rocket 3.9 14:36:01 42° NW 14:36:01 42° NW 14:39:31 10° NNW
CZ-3B R/B 4.3 14:58:07 10° WNW 15:19:56 59° N 15:21:19 58° NNE
ATLAS 2AS CENTAUR R/B 4.0 21:51:17 38° NE 21:51:17 38° NE 21:56:02 10° NNE
Milstar 3 Cent rocket 4.0 22:00:37 29° ENE 22:00:37 29° ENE 22:02:51 10° ENE
Atlas 2A Centaur Rocket 4.4 22:15:58 35° S 22:17:54 42° SE 22:40:41 10° ENE
Milstar 3 2.8 22:25:53 82° NE 22:25:53 82° NE 22:32:12 10° ENE
ATLAS 5 CENTAUR R/B 3.4 22:39:16 40° SSW 22:39:16 40° SSW 22:43:56 10° S
Cosmos 407 Rocket 4.5 22:33:22 16° SSE 22:37:14 44° ESE 22:42:06 10° NNE
NOSS 0 Rocket 3.9 22:38:37 77° NNE 22:38:37 77° NNE 22:44:17 10° NNE
Delta 7925 Rocket 4.3 22:41:29 46° NNE 22:41:29 46° NNE 22:45:44 10° NE
Delta 198 4.3 22:41:21 72° S 22:41:33 73° SSE 22:48:18 10° ENE
Cosmos 2237 Rocket 2.2 22:45:38 42° S 22:47:37 75° ESE 22:53:16 10° NNE
Palapa B4 Rocket 3.7 22:55:39 50° S 22:55:39 50° S 23:00:53 10° ESE
NOSS 3-4 (A) 3.6 23:00:12 48° NW 23:00:12 48° NW 23:05:11 10° N
NOSS 3-4 (C) 3.6 23:00:09 50° NW 23:00:09 50° NW 23:05:18 10° NNE
Cosmos 1980 3.5 23:02:47 52° SW 23:03:58 67° WNW 23:09:35 10° N
Cosmos 1766 3.1 23:11:55 81° W 23:11:58 82° W 23:15:55 10° S
CZ-4B R/B 3.8 23:11:37 10° N 23:15:43 82° W 23:20:00 10° SSW
GPS 2-17 Rocket1 3.3 23:16:14 43° NNW 23:16:33 44° N 23:20:42 10° ENE
Cosmos 1805 3.3 23:23:55 51° W 23:23:57 51° W 23:27:46 10° S
Cosmos 1455 Rocket 4.2 23:29:54 25° SW 23:29:54 25° SW 23:32:17 10° SSW
CZ-2C R/B 2.7 23:23:47 10° N 23:28:41 45° WNW 23:33:29 10° SSW
Cosmos 1140 Rocket 3.3 23:24:20 10° SSW 23:29:32 74° WNW 23:34:43 10° N
Cosmos 1707 2.6 23:26:11 10° S 23:30:04 82° W 23:33:58 10° N
Cosmos 389 Rocket 2.2 23:27:27 10° S 23:30:52 72° W 23:34:15 10° N
Meteor 1-31 Rocket 3.0 23:27:54 10° N 23:31:29 42° WNW 23:35:04 10° SSW
Cosmos 1544 Rocket 3.9 23:30:08 29° NW 23:31:37 39° W 23:35:39 10° SSW
Cosmos 2184 Rocket 4.0 23:28:32 10° SSW 23:34:32 56° W 23:40:36 10° N
Cosmos 1610 Rocket 4.5 23:29:46 10° S 23:35:57 89° E 23:42:13 10° N
SL-16 R/B 2.4 23:32:46 10° S 23:38:23 73° ESE 23:44:00 10° NNE
ATLAS V CENTAUR R/B 3.9 23:37:24 25° WSW 23:39:05 44° S 23:49:48 10° ESE
ATLAS 2AS CENTAUR R/B 4.2 23:38:49 19° WNW 23:39:25 19° WNW 23:44:40 10° NNW
Cosmos 1470 3.9 23:36:46 10° N 23:40:29 45° E 23:44:12 10° SSE
SWIFT 2.7 23:41:12 26° W 23:43:14 50° SSW 23:47:17 10° SE
Cosmos 1733 3.3 23:40:56 10° NNW 23:44:38 49° W 23:48:19 10° SSW
Meteor PRIRODA 3.9 23:42:33 10° N 23:46:06 44° WNW 23:49:38 10° SSW
Cosmos 1992 Rocket 3.9 23:42:24 10° NNW 23:47:36 77° WSW 23:52:46 10° S
Cosmos 1484 Rocket 2.6 23:45:29 10° N 23:49:17 73° WNW 23:53:09 10° SSW
Ariane H10-3 3.0 23:48:37 15° SW 23:50:14 28° S 23:54:46 10° ESE
Cosmos 1844 Rocket 2.9 23:45:37 10° NNW 23:50:52 44° WSW 23:56:07 10° S
Ariane H10+ 3.9 23:53:48 10° SW 23:54:43 11° SSW 23:55:31 10° S
